Regional Weather Roundup
Issued by NWS

Home | Current Version | Previous Version | Graphics & Text | Print | Product List | Glossary On
Versions: 1 2 3 4 5 6 7 8 9 10 11 12 13 14 15 16 17 18 19 20 21 22 23 24 25 26 27
000
ASUS45 KSLC 251710
RWRUT

UTAH REGIONAL WEATHER ROUNDUP
NATIONAL WEATHER SERVICE SALT LAKE CITY UT
1100 AM MDT SAT MAR 25 2017

UTZ001>011-023>025-251800-

NORTHERN UTAH

CITY           SKY/WX    TMP DP  RH WIND       PRES   REMARKS
BRIGHAM CITY     N/A     41  37  86 N17       30.04S
HILL AFB       LGT RAIN  40  40  97 NW14      30.02S WCI  33
LOGAN          LGT RAIN  40  37  89 N17       30.05S WCI  31
OGDEN          LGT RAIN  40  39  97 N10       30.01F WCI  33
SALT LAKE CITY RAIN      44  41  89 N13       30.02S FOG
WENDOVER       CLOUDY    45  37  73 NW6       30.07S
HEBER CITY     DRIZZLE   43  37  81 SW12      29.99F

$$

UTZ011>015-024>027-251800-

CENTRAL/NORTHEAST UTAH

CITY           SKY/WX    TMP DP  RH WIND       PRES   REMARKS
PROVO AIRPORT  CLOUDY    48  41  76 NE9       30.01F
MOAB/CANYONLAN CLOUDY    55  28  35 E12       29.97F
DELTA          CLOUDY    46  41  81 NW15      30.00R
PRICE          PTSUNNY   50  31  48 SE8       30.00F
ROOSEVELT      PTSUNNY   46  34  61 CALM      30.02F
VERNAL         MOSUNNY   51  31  46 CALM      30.00F

$$

UTZ013>016-019>022-027-251800-

SOUTHERN UTAH

CITY           SKY/WX    TMP DP  RH WIND       PRES   REMARKS
BRYCE CANYON   CLOUDY    41  27  57 SE9       30.06S
CEDAR CITY     CLOUDY    46  31  55 S24G33    29.98S
MILFORD        CLOUDY    52  29  41 SW7       29.97S
ST GEORGE      LGT RAIN  51  40  65 N3        30.01R
HANKSVILLE     CLOUDY    50  32  50 CALM      30.00F
BLANDING       CLOUDY    49  24  37 SE8       30.14F

$$

REGIONAL REPORTS     COLORADO/ARIZONA

CITY           SKY/WX    TMP DP  RH WIND       PRES   REMARKS
CRAIG, CO      CLOUDY    55  23  28 NE12      30.01F
GRAND JUNCTION SUNNY     55  30  38 SE13      30.00F
RIFLE, CO      CLOUDY    51  28  41 CALM      30.04F
MONTROSE, CO   CLOUDY    55  23  28 SE10      30.05F
CORTEZ, CO     CLOUDY    56  28  34 S6        30.08F
COLORADO CITY  DRIZZLE   50  36  57 SW6       30.07R
PAGE, AZ       CLOUDY    52  35  52 W5        30.00S
GRAND CANYON   CLOUDY    44  29  55 S8        30.08F
KINGMAN, AZ    PTSUNNY   62  20  19 SW22G30   30.02R
FLAGSTAFF, AZ  CLOUDY    43  31  62 SW15      30.10F

$$

REGIONAL REPORTS    NEVADA/IDAHO/WYOMING

CITY           SKY/WX    TMP DP  RH WIND       PRES   REMARKS
LAS VEGAS, NV  PTSUNNY   64  36  35 N20       29.98R
ELY, NY        LGT SNOW  32  32 100 N9        30.04S WCI  24
ELKO, NV       CLOUDY    43  34  70 CALM      30.06S
POCATELLO, ID  CLOUDY    42  37  82 SW14      30.06S
BURLEY, ID     CLOUDY    43  35  73 W12       30.04F
FORT BRIDGER,  CLOUDY    44  30  57 W3        30.03F
EVANSTON, WY   FLURRIES  38  29  70 W10       30.02R WCI  31
ROCK SPRINGS,  CLOUDY    45  32  60 SE5       30.00F
KEMMERER, WY     N/A     37  30  75 N5        30.01F WCI  34

$$




USA.gov is the U.S. government's official web portal to all federal, state and local government web resources and services.